KC4LW Weather Reports


time (UTC)temp
F
wind
direction
speed
knots
gust
knots
rain 1hr
in
rain 24hr
in
rain mn
in
humidity
%
barometer
mb
20260507011555 77 241 0.9 4.3 0.00 0.00 0.00 74 1014.1
20260507004605 77 91 0.9 9.6 0.00 0.00 0.00 73 1014.0
20260507003057 77 0 0.9 8.7 0.00 0.00 0.00 72 1013.8
20260507001555 78 170 0.9 7.0 0.00 0.00 0.00 71 1013.7
20260507000054 78 0 1.7 6.1 0.00 0.00 0.00 70 1013.3
20260506234555 79 82 1.7 7.0 0.00 0.00 0.00 68 1013.4
20260506233110 80 49 2.6 7.0 0.00 0.00 0.00 67 1013.3
20260506231600 80 69 2.6 8.7 0.00 0.00 0.00 68 1013.2
20260506230059 81 142 1.7 9.6 0.00 0.00 0.00 68 1013.3
20260506224554 81 139 1.7 7.8 0.00 0.00 0.00 70 1013.3
20260506223053 82 89 1.7 7.0 0.00 0.00 0.00 71 1013.4
20260506221553 82 96 2.6 10.4 0.00 0.00 0.00 71 1013.4
20260506220054 82 101 3.5 13.0 0.00 0.00 0.00 70 1013.3
20260506214555 83 109 2.6 7.8 0.00 0.00 0.00 69 1013.2
20260506213113 83 137 1.7 11.3 0.00 0.00 0.00 69 1013.3
20260506211553 82 242 3.5 9.6 0.00 0.00 0.00 71 1013.3
20260506210054 83 167 2.6 10.4 0.00 0.00 0.00 71 1013.6
20260506204553 83 71 1.7 12.2 0.00 0.00 0.00 72 1013.7
20260506203054 83 74 5.2 10.4 0.00 0.00 0.00 71 1013.6
20260506201552 84 162 1.7 8.7 0.00 0.00 0.00 71 1013.6
20260506200051 83 117 1.7 7.8 0.00 0.00 0.00 72 1013.8
20260506194552 83 114 5.2 12.2 0.00 0.00 0.00 71 1014.1
20260506193051 83 107 2.6 11.3 0.00 0.00 0.00 71 1014.3
20260506191551 84 95 3.5 12.2 0.00 0.00 0.00 70 1014.4
20260506190048 83 175 5.2 12.2 0.00 0.00 0.00 70 1014.6
20260506184601 84 53 2.6 11.3 0.00 0.00 0.00 70 1014.8
20260506183103 84 87 3.5 10.4 0.00 0.00 0.00 69 1015.0
20260506181619 85 70 3.5 11.3 0.00 0.00 0.00 68 1015.2
20260506180050 86 75 4.3 8.7 0.00 0.00 0.00 64 1015.2
20260506174551 88 196 2.6 6.1 0.00 0.00 0.00 61 1015.3
20260506173101 88 246 2.6 7.8 0.00 0.00 0.00 58 1015.8
20260506171552 87 223 1.7 10.4 0.00 0.00 0.00 59 1015.6
20260506170055 87 163 0.9 7.0 0.00 0.00 0.00 60 1016.0
20260506164554 86 221 1.7 9.6 0.00 0.00 0.00 60 1016.1
20260506163055 86 187 2.6 7.8 0.00 0.00 0.00 61 1016.4
20260506161554 85 246 3.5 11.3 0.00 0.00 0.00 61 1016.4
20260506160108 85 235 2.6 12.2 0.00 0.00 0.00 62 1016.4
20260506154603 83 263 1.7 9.6 0.00 0.00 0.00 64 1016.5
20260506153112 83 200 1.7 8.7 0.00 0.00 0.00 66 1016.4
20260506151602 82 208 1.7 8.7 0.00 0.00 0.00 66 1016.6
20260506150100 81 116 3.5 9.6 0.00 0.00 0.00 68 1016.5
20260506144557 81 296 3.5 7.8 0.00 0.00 0.00 69 1016.3
20260506143053 79 215 1.7 9.6 0.00 0.00 0.00 70 1016.2
20260506141553 79 205 2.6 8.7 0.00 0.00 0.00 71 1016.3
20260506140054 78 198 2.6 9.6 0.00 0.00 0.00 74 1016.3
20260506134557 77 240 0.9 9.6 0.00 0.00 0.00 76 1016.5
20260506133054 76 238 0.9 7.8 0.00 0.00 0.00 78 1016.4
20260506131554 76 191 0.9 6.1 0.00 0.00 0.00 78 1016.4
20260506130050 74 243 0.9 7.0 0.00 0.00 0.00 80 1016.3
20260506124554 72 158 2.6 7.8 0.00 0.00 0.00 82 1016.1
20260506123054 70 206 0.9 4.3 0.00 0.00 0.00 85 1016.1
20260506121555 68 213 0.9 5.2 0.00 0.00 0.00 88 1015.9
20260506120059 66 211 1.7 5.2 0.00 0.00 0.00 90 1015.8
20260506114558 65 0 0.9 3.5 0.00 0.00 0.00 92 1015.6
20260506113056 63 210 0.0 1.7 0.00 0.00 0.00 92 1015.6
20260506111551 63 0 0.0 0.0 0.00 0.00 0.00 92 1015.4
20260506110054 62 0 0.0 0.0 0.00 0.00 0.00 91 1015.2
20260506104558 63 0 0.0 0.0 0.00 0.00 0.00 91 1015.2
20260506103056 63 0 0.0 0.9 0.00 0.00 0.00 91 1015.0
20260506101555 63 0 0.0 0.0 0.00 0.00 0.00 90 1015.1
20260506100055 62 0 0.0 0.0 0.00 0.00 0.00 89 1014.9
20260506094552 63 0 0.0 0.0 0.00 0.00 0.00 89 1015.2
20260506093059 63 0 0.0 0.0 0.00 0.00 0.00 89 1015.0
20260506091600 63 0 0.0 0.0 0.00 0.00 0.00 88 1014.9
20260506090059 63 0 0.0 0.0 0.00 0.00 0.00 88 1014.9
20260506084606 63 0 0.0 1.7 0.00 0.00 0.00 87 1014.6
20260506083059 64 176 0.0 0.9 0.00 0.00 0.00 87 1014.8
20260506081602 64 0 0.0 0.0 0.00 0.00 0.00 86 1014.9
20260506080107 64 0 0.0 0.9 0.00 0.00 0.00 86 1014.9
20260506073100 64 0 0.0 0.0 0.00 0.00 0.00 86 1014.5
20260506071605 64 0 0.0 0.0 0.00 0.00 0.00 86 1014.8
20260506070104 64 0 0.0 0.9 0.00 0.00 0.00 87 1014.8
20260506061556 64 0 0.0 0.0 0.00 0.00 0.00 87 1015.4
20260506050105 65 0 0.0 0.0 0.00 0.00 0.00 84 1015.7
20260506044554 66 0 0.0 0.0 0.00 0.00 0.00 83 1015.7
20260506043051 66 0 0.0 0.0 0.00 0.00 0.00 82 1015.6
20260506041553 67 0 0.0 0.0 0.00 0.00 0.00 81 1015.8
20260506040057 67 0 0.0 0.0 0.00 0.00 0.00 80 1015.9
20260506034614 68 0 0.0 0.0 0.00 0.00 0.00 78 1015.8
20260506033054 69 0 0.0 0.0 0.00 0.00 0.00 77 1015.9
20260506031607 70 0 0.0 1.7 0.00 0.00 0.00 76 1015.8
20260506030058 70 0 0.0 1.7 0.00 0.00 0.00 75 1015.5
20260506024618 71 0 0.0 1.7 0.00 0.00 0.00 74 1015.2
20260506023054 71 0 0.9 3.5 0.00 0.00 0.00 73 1015.2
20260506021554 71 68 0.9 3.5 0.00 0.00 0.00 72 1015.0
20260506020058 71 96 0.9 5.2 0.00 0.00 0.00 71 1015.0
20260506014553 71 0 0.9 3.5 0.00 0.00 0.00 71 1015.1
20260506013103 71 93 0.0 3.5 0.00 0.00 0.00 70 1015.0